Time,TemperatureF,DewpointF,PressureIn,WindDirection,WindDirectionDegrees,WindSpeedMPH,WindSpeedGustMPH,Humidity,HourlyPrecipIn,Conditions,Clouds,dailyrainin,SoftwareType,DateUTC
2013-01-07 00:02:00,37.0,37.0,30.11,NE,38,0.0,0.0,100,0.01,,,0.02,,2013-01-07 08:02:00,
2013-01-07 00:11:00,37.0,37.0,30.11,NE,38,0.0,0.0,100,0.01,,,0.02,,2013-01-07 08:11:00,
2013-01-07 00:22:00,38.0,38.0,30.10,North,352,2.0,5.0,100,0.00,,,0.02,,2013-01-07 08:22:00,
2013-01-07 00:32:00,37.0,37.0,30.10,NNW,341,0.0,0.0,100,0.00,,,0.02,,2013-01-07 08:32:00,
2013-01-07 00:42:00,37.0,37.0,30.10,NNW,341,0.0,0.0,100,0.00,,,0.02,,2013-01-07 08:42:00,
2013-01-07 00:52:00,37.0,37.0,30.09,NNW,341,0.0,0.0,100,0.00,,,0.02,,2013-01-07 08:52:00,
2013-01-07 01:02:00,38.0,38.0,30.09,ENE,78,1.0,4.0,100,0.00,,,0.02,,2013-01-07 09:02:00,
2013-01-07 01:11:00,38.0,38.0,30.09,ENE,78,1.0,4.0,100,0.00,,,0.02,,2013-01-07 09:11:00,
2013-01-07 01:22:00,38.0,38.0,30.09,East,99,3.0,5.0,100,0.00,,,0.02,,2013-01-07 09:22:00,
2013-01-07 01:32:00,38.0,38.0,30.10,ESE,107,0.0,6.0,100,0.00,,,0.01,,2013-01-07 09:32:00,
2013-01-07 01:42:00,38.0,38.0,30.10,ESE,107,0.0,6.0,100,0.00,,,0.01,,2013-01-07 09:42:00,
2013-01-07 01:52:00,38.0,38.0,30.10,ENE,60,0.0,1.0,100,0.00,,,0.01,,2013-01-07 09:52:00,
2013-01-07 02:02:00,39.0,39.0,30.09,East,91,3.0,8.0,100,0.00,,,0.01,,2013-01-07 10:02:00,
2013-01-07 02:11:00,39.0,39.0,30.09,East,89,4.0,6.0,100,0.00,,,0.01,,2013-01-07 10:11:00,
2013-01-07 02:22:00,39.0,39.0,30.09,East,89,4.0,6.0,100,0.00,,,0.01,,2013-01-07 10:22:00,
2013-01-07 02:32:00,37.0,37.0,30.09,ESE,117,0.0,4.0,100,0.00,,,0.01,,2013-01-07 10:32:00,
2013-01-07 02:42:00,37.0,37.0,30.09,ESE,117,0.0,4.0,100,0.00,,,0.01,,2013-01-07 10:42:00,
2013-01-07 02:52:00,37.0,37.0,30.09,East,88,0.0,1.0,100,0.00,,,0.01,,2013-01-07 10:52:00,
2013-01-07 03:02:00,37.0,37.0,30.11,East,88,0.0,0.0,100,0.00,,,0.01,,2013-01-07 11:02:00,
2013-01-07 03:11:00,37.0,37.0,30.11,East,88,0.0,0.0,100,0.00,,,0.01,,2013-01-07 11:11:00,
2013-01-07 03:22:00,36.0,36.0,30.11,East,88,0.0,0.0,100,0.00,,,0.01,,2013-01-07 11:22:00,
2013-01-07 03:32:00,38.0,38.0,30.11,East,88,0.0,0.0,100,0.00,,,0.01,,2013-01-07 11:32:00,
2013-01-07 03:42:00,38.0,38.0,30.11,East,88,0.0,0.0,100,0.00,,,0.01,,2013-01-07 11:42:00,
2013-01-07 03:52:00,38.0,38.0,30.11,East,88,0.0,0.0,100,0.00,,,0.01,,2013-01-07 11:52:00,
2013-01-07 04:02:00,37.0,37.0,30.10,NNW,327,0.0,0.0,100,0.00,,,0.01,,2013-01-07 12:02:00,
2013-01-07 04:12:00,38.0,38.0,30.10,NNW,327,0.0,0.0,100,0.00,,,0.01,,2013-01-07 12:12:00,
2013-01-07 04:22:00,38.0,38.0,30.10,NNW,327,0.0,0.0,100,0.00,,,0.01,,2013-01-07 12:22:00,
2013-01-07 04:32:00,38.0,38.0,30.10,SE,128,0.0,3.0,100,0.00,,,0.01,,2013-01-07 12:32:00,
2013-01-07 04:42:00,38.0,38.0,30.10,SE,128,0.0,3.0,100,0.00,,,0.01,,2013-01-07 12:42:00,
2013-01-07 04:52:00,38.0,38.0,30.11,SE,128,0.0,0.0,100,0.00,,,0.01,,2013-01-07 12:52:00,
2013-01-07 05:02:00,38.0,38.0,30.11,East,86,2.0,3.0,100,0.00,,,0.01,,2013-01-07 13:02:00,
2013-01-07 05:11:00,38.0,38.0,30.11,East,86,2.0,3.0,100,0.00,,,0.01,,2013-01-07 13:11:00,
2013-01-07 05:22:00,37.0,37.0,30.11,East,98,3.0,5.0,100,0.00,,,0.01,,2013-01-07 13:22:00,
2013-01-07 05:32:00,38.0,38.0,30.10,East,93,4.0,8.0,100,0.00,,,0.01,,2013-01-07 13:32:00,
2013-01-07 05:42:00,38.0,38.0,30.10,East,93,4.0,8.0,100,0.00,,,0.01,,2013-01-07 13:42:00,
2013-01-07 05:52:00,38.0,38.0,30.10,SE,139,2.0,7.0,100,0.00,,,0.01,,2013-01-07 13:52:00,
2013-01-07 06:02:00,38.0,38.0,30.11,ESE,122,0.0,9.0,100,0.00,,,0.01,,2013-01-07 14:02:00,
2013-01-07 06:12:00,38.0,38.0,30.12,ENE,73,2.0,3.0,100,0.00,,,0.01,,2013-01-07 14:12:00,
2013-01-07 06:22:00,38.0,38.0,30.12,ENE,73,2.0,3.0,100,0.00,,,0.01,,2013-01-07 14:22:00,
2013-01-07 06:32:00,38.0,38.0,30.11,ENE,77,5.0,6.0,100,0.00,,,0.01,,2013-01-07 14:32:00,
2013-01-07 06:42:00,38.0,38.0,30.11,ENE,77,5.0,6.0,100,0.00,,,0.01,,2013-01-07 14:42:00,
2013-01-07 06:53:00,38.0,38.0,30.11,East,91,3.0,5.0,100,0.00,,,0.01,,2013-01-07 14:53:00,
2013-01-07 07:02:00,38.0,38.0,30.12,East,91,3.0,5.0,100,0.00,,,0.01,,2013-01-07 15:02:00,
2013-01-07 07:12:00,38.0,38.0,30.12,East,91,3.0,5.0,100,0.00,,,0.01,,2013-01-07 15:12:00,
2013-01-07 07:22:00,37.0,37.0,30.12,SE,137,3.0,5.0,100,0.00,,,0.01,,2013-01-07 15:22:00,
2013-01-07 07:33:00,37.0,37.0,30.12,ESE,121,3.0,7.0,100,0.00,,,0.01,,2013-01-07 15:33:00,
2013-01-07 07:42:00,37.0,37.0,30.12,ESE,121,3.0,7.0,100,0.00,,,0.01,,2013-01-07 15:42:00,
2013-01-07 07:52:00,37.0,37.0,30.14,SE,143,0.0,4.0,100,0.00,,,0.01,,2013-01-07 15:52:00,
2013-01-07 08:02:00,37.0,37.0,30.15,ENE,78,3.0,4.0,100,0.00,,,0.01,,2013-01-07 16:02:00,
2013-01-07 08:11:00,37.0,37.0,30.15,ENE,78,3.0,4.0,100,0.00,,,0.01,,2013-01-07 16:11:00,
2013-01-07 08:22:00,38.0,38.0,30.15,East,97,0.0,4.0,100,0.00,,,0.01,,2013-01-07 16:22:00,
2013-01-07 08:32:00,38.0,38.0,30.14,ENE,76,0.0,2.0,100,0.00,,,0.01,,2013-01-07 16:32:00,
2013-01-07 08:42:00,38.0,38.0,30.14,ENE,76,0.0,2.0,100,0.00,,,0.01,,2013-01-07 16:42:00,
2013-01-07 08:53:00,39.0,39.0,30.16,ENE,76,0.0,0.0,100,0.00,,,0.01,,2013-01-07 16:53:00,
2013-01-07 09:02:00,39.0,39.0,30.16,NE,55,0.0,2.0,100,0.00,,,0.01,,2013-01-07 17:02:00,
2013-01-07 09:11:00,39.0,39.0,30.16,NE,55,0.0,2.0,100,0.00,,,0.01,,2013-01-07 17:11:00,
2013-01-07 09:22:00,41.0,41.0,30.16,ENE,76,0.0,0.0,100,0.00,,,0.01,,2013-01-07 17:22:00,
2013-01-07 09:32:00,41.0,41.0,30.17,ENE,76,0.0,0.0,100,0.00,,,0.01,,2013-01-07 17:32:00,
2013-01-07 09:42:00,41.0,41.0,30.17,ENE,76,0.0,0.0,100,0.00,,,0.01,,2013-01-07 17:42:00,
2013-01-07 09:53:00,42.0,42.0,30.19,ENE,76,0.0,0.0,100,0.00,,,0.01,,2013-01-07 17:53:00,
2013-01-07 10:02:00,43.0,43.0,30.18,ENE,76,0.0,0.0,100,0.00,,,0.01,,2013-01-07 18:02:00,
2013-01-07 10:12:00,43.0,43.0,30.18,ENE,76,0.0,0.0,100,0.00,,,0.01,,2013-01-07 18:12:00,
2013-01-07 10:22:00,44.0,44.0,30.18,ENE,74,0.0,3.0,100,0.00,,,0.01,,2013-01-07 18:22:00,
2013-01-07 10:32:00,45.0,45.0,30.19,ENE,74,0.0,0.0,100,0.00,,,0.01,,2013-01-07 18:32:00,
2013-01-07 10:42:00,47.0,47.0,30.20,ESE,114,0.0,0.0,100,0.00,,,0.01,,2013-01-07 18:42:00,
2013-01-07 10:52:00,47.0,47.0,30.20,ESE,114,0.0,0.0,100,0.00,,,0.01,,2013-01-07 18:52:00,
2013-01-07 11:02:00,47.0,46.0,30.21,ESE,114,0.0,0.0,97,0.00,,,0.01,,2013-01-07 19:02:00,
2013-01-07 11:12:00,47.0,46.0,30.21,ESE,114,0.0,0.0,97,0.00,,,0.01,,2013-01-07 19:12:00,
2013-01-07 11:22:00,49.0,45.0,30.20,West,267,1.0,2.0,87,0.00,,,0.01,,2013-01-07 19:22:00,
2013-01-07 11:32:00,50.0,47.0,30.19,NW,315,3.0,4.0,91,0.00,,,0.01,,2013-01-07 19:32:00,
2013-01-07 11:42:00,50.0,47.0,30.19,NW,315,3.0,4.0,91,0.00,,,0.01,,2013-01-07 19:42:00,
2013-01-07 11:53:00,52.0,46.0,30.17,NW,305,3.0,6.0,80,0.00,,,0.01,,2013-01-07 19:53:00,
2013-01-07 12:02:00,53.0,47.0,30.16,NW,306,3.0,6.0,79,0.00,,,0.01,,2013-01-07 20:02:00,
2013-01-07 12:22:00,53.0,47.0,30.16,West,272,3.0,6.0,81,0.00,,,0.01,,2013-01-07 20:22:00,
2013-01-07 12:32:00,53.0,43.0,30.16,SW,235,2.0,5.0,70,0.00,,,0.01,,2013-01-07 20:32:00,
2013-01-07 12:42:00,53.0,43.0,30.16,SW,235,2.0,5.0,70,0.00,,,0.01,,2013-01-07 20:42:00,
2013-01-07 12:53:00,55.0,46.0,30.16,NW,324,1.0,4.0,72,0.00,,,0.01,,2013-01-07 20:53:00,
2013-01-07 13:02:00,55.0,46.0,30.16,NW,311,5.0,6.0,71,0.00,,,0.01,,2013-01-07 21:02:00,
2013-01-07 13:11:00,55.0,46.0,30.16,NW,311,5.0,6.0,71,0.00,,,0.01,,2013-01-07 21:11:00,
2013-01-07 13:22:00,57.0,47.0,30.15,WNW,302,4.0,9.0,69,0.00,,,0.01,,2013-01-07 21:22:00,
2013-01-07 13:32:00,57.0,46.0,30.15,NW,317,5.0,9.0,67,0.00,,,0.01,,2013-01-07 21:32:00,
2013-01-07 13:42:00,57.0,46.0,30.15,NW,317,5.0,9.0,67,0.00,,,0.01,,2013-01-07 21:42:00,
2013-01-07 13:53:00,57.0,46.0,30.14,West,272,2.0,9.0,66,0.00,,,0.01,,2013-01-07 21:53:00,
2013-01-07 14:01:00,57.0,46.0,30.14,NW,311,5.0,8.0,67,0.00,,,0.01,,2013-01-07 22:01:00,
2013-01-07 14:11:00,57.0,46.0,30.14,NW,311,5.0,8.0,67,0.00,,,0.01,,2013-01-07 22:11:00,
2013-01-07 14:22:00,57.0,45.0,30.13,NNW,343,4.0,7.0,63,0.00,,,0.01,,2013-01-07 22:22:00,
2013-01-07 14:32:00,57.0,46.0,30.14,WNW,288,2.0,6.0,66,0.00,,,0.01,,2013-01-07 22:32:00,
2013-01-07 14:42:00,57.0,46.0,30.14,WNW,288,2.0,6.0,66,0.00,,,0.01,,2013-01-07 22:42:00,
2013-01-07 14:53:00,57.0,46.0,30.13,WNW,303,3.0,5.0,67,0.00,,,0.01,,2013-01-07 22:53:00,
2013-01-07 15:02:00,57.0,47.0,30.13,West,268,2.0,4.0,68,0.00,,,0.01,,2013-01-07 23:02:00,
2013-01-07 15:11:00,56.0,45.0,30.14,WNW,299,4.0,6.0,66,0.00,,,0.01,,2013-01-07 23:11:00,
2013-01-07 15:22:00,56.0,45.0,30.14,WNW,299,4.0,6.0,66,0.00,,,0.01,,2013-01-07 23:22:00,
2013-01-07 15:32:00,56.0,46.0,30.13,NW,317,2.0,3.0,68,0.00,,,0.01,,2013-01-07 23:32:00,
2013-01-07 15:42:00,56.0,46.0,30.13,NW,317,2.0,3.0,68,0.00,,,0.01,,2013-01-07 23:42:00,
2013-01-07 15:53:00,56.0,46.0,30.13,SW,228,1.0,3.0,69,0.00,,,0.01,,2013-01-07 23:53:00,
2013-01-07 16:02:00,55.0,46.0,30.13,NW,314,2.0,3.0,71,0.00,,,0.01,,2013-01-08 00:02:00,
2013-01-07 16:11:00,55.0,46.0,30.13,NW,314,2.0,3.0,71,0.00,,,0.01,,2013-01-08 00:11:00,
2013-01-07 16:22:00,55.0,46.0,30.13,WNW,289,0.0,0.0,71,0.00,,,0.01,,2013-01-08 00:22:00,
2013-01-07 16:32:00,54.0,45.0,30.13,NW,326,2.0,3.0,71,0.00,,,0.01,,2013-01-08 00:32:00,
2013-01-07 16:42:00,54.0,45.0,30.13,NW,326,2.0,3.0,71,0.00,,,0.01,,2013-01-08 00:42:00,
2013-01-07 16:52:00,53.0,46.0,30.12,NW,317,0.0,0.0,76,0.00,,,0.01,,2013-01-08 00:52:00,
2013-01-07 17:02:00,52.0,45.0,30.12,NW,317,0.0,0.0,78,0.00,,,0.01,,2013-01-08 01:02:00,
2013-01-07 17:11:00,52.0,45.0,30.12,NW,317,0.0,0.0,78,0.00,,,0.01,,2013-01-08 01:11:00,
2013-01-07 17:22:00,51.0,46.0,30.12,NW,317,0.0,0.0,83,0.00,,,0.01,,2013-01-08 01:22:00,
2013-01-07 17:32:00,50.0,46.0,30.13,NW,317,0.0,0.0,85,0.00,,,0.01,,2013-01-08 01:32:00,
2013-01-07 17:42:00,50.0,46.0,30.13,NW,317,0.0,0.0,85,0.00,,,0.01,,2013-01-08 01:42:00,
2013-01-07 17:52:00,48.0,45.0,30.13,NW,317,0.0,0.0,89,0.00,,,0.01,,2013-01-08 01:52:00,
2013-01-07 18:02:00,48.0,45.0,30.12,NW,317,0.0,0.0,91,0.00,,,0.01,,2013-01-08 02:02:00,
2013-01-07 18:11:00,48.0,45.0,30.12,NW,317,0.0,0.0,91,0.00,,,0.01,,2013-01-08 02:11:00,
2013-01-07 18:22:00,47.0,45.0,30.12,NW,317,0.0,0.0,93,0.00,,,0.01,,2013-01-08 02:22:00,
2013-01-07 18:32:00,47.0,45.0,30.12,NW,317,0.0,0.0,93,0.00,,,0.01,,2013-01-08 02:32:00,
2013-01-07 18:42:00,47.0,45.0,30.12,NW,317,0.0,0.0,93,0.00,,,0.01,,2013-01-08 02:42:00,
2013-01-07 18:53:00,46.0,44.0,30.12,NW,317,0.0,0.0,94,0.00,,,0.01,,2013-01-08 02:53:00,
2013-01-07 19:02:00,46.0,45.0,30.11,NW,317,0.0,0.0,95,0.00,,,0.01,,2013-01-08 03:02:00,
2013-01-07 19:11:00,46.0,45.0,30.11,NW,317,0.0,0.0,95,0.00,,,0.01,,2013-01-08 03:11:00,
2013-01-07 19:22:00,45.0,44.0,30.11,ENE,74,0.0,3.0,96,0.00,,,0.01,,2013-01-08 03:22:00,
2013-01-07 19:32:00,45.0,44.0,30.11,ENE,77,2.0,2.0,97,0.00,,,0.01,,2013-01-08 03:32:00,
2013-01-07 19:42:00,45.0,44.0,30.11,ENE,77,2.0,2.0,97,0.00,,,0.01,,2013-01-08 03:42:00,
2013-01-07 19:53:00,45.0,44.0,30.13,East,80,0.0,0.0,97,0.00,,,0.01,,2013-01-08 03:53:00,
2013-01-07 20:02:00,45.0,44.0,30.11,East,80,0.0,0.0,97,0.00,,,0.01,,2013-01-08 04:02:00,
2013-01-07 20:11:00,45.0,44.0,30.11,East,80,0.0,0.0,97,0.00,,,0.01,,2013-01-08 04:11:00,
2013-01-07 20:22:00,45.0,44.0,30.13,North,5,3.0,4.0,97,0.00,,,0.01,,2013-01-08 04:22:00,
2013-01-07 20:32:00,44.0,43.0,30.12,NNE,26,0.0,2.0,98,0.00,,,0.01,,2013-01-08 04:32:00,
2013-01-07 20:42:00,44.0,43.0,30.12,NNE,26,0.0,2.0,98,0.00,,,0.01,,2013-01-08 04:42:00,
2013-01-07 20:52:00,44.0,43.0,30.13,NE,43,0.0,0.0,98,0.00,,,0.01,,2013-01-08 04:52:00,
2013-01-07 21:03:00,44.0,43.0,30.13,NE,43,0.0,0.0,98,0.00,,,0.01,,2013-01-08 05:03:00,
2013-01-07 21:12:00,44.0,43.0,30.13,NE,43,0.0,0.0,98,0.00,,,0.01,,2013-01-08 05:12:00,
2013-01-07 21:22:00,43.0,42.0,30.13,NE,43,0.0,0.0,98,0.00,,,0.01,,2013-01-08 05:22:00,
2013-01-07 21:32:00,43.0,43.0,30.14,North,354,0.0,3.0,99,0.00,,,0.01,,2013-01-08 05:32:00,
2013-01-07 21:42:00,43.0,43.0,30.14,North,354,0.0,3.0,99,0.00,,,0.01,,2013-01-08 05:42:00,
2013-01-07 21:53:00,43.0,43.0,30.14,ENE,60,0.0,0.0,99,0.00,,,0.01,,2013-01-08 05:53:00,
2013-01-07 22:02:00,43.0,43.0,30.13,ENE,57,0.0,4.0,99,0.00,,,0.01,,2013-01-08 06:02:00,
2013-01-07 22:11:00,43.0,43.0,30.13,ENE,57,0.0,4.0,99,0.00,,,0.01,,2013-01-08 06:11:00,
2013-01-07 22:22:00,42.0,42.0,30.12,ENE,57,0.0,0.0,99,0.00,,,0.01,,2013-01-08 06:22:00,
2013-01-07 22:32:00,42.0,42.0,30.12,ENE,57,0.0,0.0,100,0.00,,,0.01,,2013-01-08 06:32:00,
2013-01-07 22:42:00,42.0,42.0,30.12,ENE,57,0.0,0.0,100,0.00,,,0.01,,2013-01-08 06:42:00,
2013-01-07 22:52:00,42.0,42.0,30.13,ENE,57,0.0,0.0,100,0.00,,,0.01,,2013-01-08 06:52:00,
2013-01-07 23:01:00,42.0,42.0,30.13,ENE,57,0.0,0.0,100,0.00,,,0.01,,2013-01-08 07:01:00,
2013-01-07 23:11:00,42.0,42.0,30.13,ENE,57,0.0,0.0,100,0.00,,,0.01,,2013-01-08 07:11:00,
2013-01-07 23:22:00,42.0,42.0,30.12,ENE,57,0.0,0.0,100,0.00,,,0.00,,2013-01-08 07:22:00,
2013-01-07 23:32:00,42.0,42.0,30.13,ENE,57,0.0,0.0,100,0.00,,,0.00,,2013-01-08 07:32:00,
2013-01-07 23:42:00,42.0,42.0,30.13,ENE,57,0.0,0.0,100,0.00,,,0.00,,2013-01-08 07:42:00,
2013-01-07 23:52:00,42.0,42.0,30.13,ENE,57,0.0,0.0,100,0.00,,,0.00,,2013-01-08 07:52:00,